www.pogodaiklimat.ru

Погода и климат >> Архив погоды >> ОАЭ >> Dubai


АРХИВ ПОГОДЫ в Dubai

Время (UTC), дата Ветер
(напр.,м/с)
 
Видим.   Явления Облачность Т
(С)
Тd
(С)
f
(%)
Тe
(С)
Тes
(С)
Комфортность P
(гПа)
Po
(гПа)
Тmin
(С)
Tmax
(С)
R
(мм)
R24
(мм)
S
(см)
12 12.12 З 4 10 км ясно +26.4 +15.0 50 +29 +31 жарко 1016.7 1016.1
15 12.12 СЗ 4 10 км ясно +24.7 +16.3 60 +28 +28 душно 1018.1 1017.5
00 13.12 ЮВ 2 10 км ясно +19.7 +15.2 75 +22 +22 комфорт 1018.7 1018.1
03 13.12 ЮВ 2 10 км ясно +18.6 +14.9 79 +20 +20 по сезону 1019.6 1019.0
06 13.12 ЮЗ 3 10 км ясно +22.2 +15.4 65 +26 +31 душно 1021.9 1021.3 +18.6
09 13.12 З 4 10 км ясно +25.4 +14.1 50 +28 +35 жарко 1019.7 1019.1
21 13.12 нст 1 10 км 1/1 900 м
[Sc]
+21.2 +15.8 71 +24 +24 комфорт 1019.9 1019.3
00 14.12 ЮЗ 3 10 км ясно +19.9 +15.6 76 +22 +22 комфорт 1019.8 1019.2
03 14.12 ЮВ 2 8000 м мгла 1/1 900 м
[Sc]
+19.7 +15.0 74 +22 +22 комфорт 1020.9 1020.3
09 14.12 нст 2 10 км 3/3 1350 м
[Sc]
+26.3 +14.0 47 +29 +35 жарко 1012.0 1019.6
12 14.12 С 6 10 км 1/1 1350 м
[Sc]
+25.7 +17.2 59 +30 +30 душно 1018.9 1018.5
18 14.12 СВ 3 10 км ясно +23.7 +14.5 56 +26 +26 жарко 1021.3 1020.7 +27.1
21 14.12 В 3 10 км ясно +22.6 +14.3 59 +26 +26 жарко 1020.2 1019.6
00 15.12 СВ 4 10 км ясно +22.6 +13.2 55 +26 +26 жарко 1019.7 1019.1
03 15.12 В 3 10 км ясно +20.4 +14.2 68 +23 +23 комфорт 1020.5 1019.9
09 15.12 Ю 3 10 км 1/1 1050 м
[Sc]
+26.9 +14.2 46 +29 +37 жарко 1019.7 1019.1
15 15.12 СВ 4 10 км ясно +24.6 +16.5 61 +28 +28 душно 1020.5 1019.9
18 15.12 СВ 3 10 км ясно +24.1 +15.5 59 +27 +27 жарко 1021.4 1021.0 +28.5
21 15.12 СВ 2 10 км 3/0 2000 м
[Ac trans]
+23.3 +13.6 54 +27 +27 душно 1020.8 1020.4
00 16.12 СВ 3 10 км 4/0 2000 м
[Ac trans]
+22.8 +13.2 55 +26 +26 жарко 1021.0 1020.6
06 16.12 В 4 10 км ясно +24.9 +13.0 48 +27 +31 жарко 1024.0 1023.4 +20.8
15 16.12 СВ 5 10 км ясно +24.9 +13.9 50 +27 +27 жарко 1021.6 1021.0
21 16.12 В 2 10 км ясно +22.2 +10.5 47 +24 +24 комфорт 1021.9 1021.3
00 17.12 нст 1 10 км ясно +20.3 +9.7 51 +23 +23 комфорт 1021.3 1020.7
03 17.12 В 2 10 км ясно +19.0 +10.7 59 +20 +20 по сезону 1021.8 1021.2
06 17.12 В 3 10 км ясно +24.6 +9.2 38 +25 +31 комфорт 1023.2 1022.6 +18.7
09 17.12 В 4 10 км ясно +27.4 +7.0 27 +27 +33 жарко 1020.2 1019.6
12 17.12 С 6 10 км ясно +26.4 +13.4 45 +28 +29 жарко 1018.6 1018.0
15 17.12 СВ 5 10 км ясно +24.3 +12.8 49 +26 +26 жарко 1019.7 1019.1
18 17.12 В 4 10 км ясно +22.9 +8.4 39 +24 +24 комфорт 1020.8 1020.2 +28.8
21 17.12 СВ 2 10 км ясно +21.0 +9.4 47 +23 +23 комфорт 1020.1 1019.5
00 18.12 В 2 10 км ясно +20.0 +9.7 51 +22 +22 комфорт 1020.3 1019.7
06 18.12 ЮВ 2 10 км ясно +24.2 +9.6 40 +25 +31 комфорт 1022.6 1022.0 +17.6
09 18.12 С 5 10 км ясно +26.2 +11.0 39 +27 +33 жарко 1020.6 1020.0
12 18.12 С 5 10 км ясно +26.2 +7.5 30 +26 +27 жарко 1018.9 1018.3
18 18.12 С 3 10 км 1/1 1050 м
[Sc]
+23.6 +12.4 49 +25 +25 комфорт 1020.4 1019.8 +27.8
21 18.12 Ю 2 10 км ясно +21.3 +12.0 55 +23 +23 комфорт 1019.4 1018.8
00 19.12 Ю 2 10 км 6/6 1200 м
[Sc]
+20.2 +11.8 58 +23 +23 комфорт 1018.9 1018.3
03 19.12 ЮЗ 2 10 км 6/6 1200 м
[Sc]
+19.4 +11.8 61 +21 +21 комфорт 1019.7 1019.1
06 19.12 ЮЗ 3 10 км 3/3 1200 м
[Sc]
+22.3 +13.2 56 +25 +29 комфорт 1022.0 1021.6 +18.7

 

Местоположение метеостанции Dubai (ОАЭ): широта 25.25 долгота 55.33 высота над уровнем моря 5 м.

В архиве по умолчанию представлена погода в Dubai за последнюю неделю. Архивные данные за месяц целиком и за предыдущие месяцы, начиная с января 2011 года, Вы можете получить, выбрав интересующий диапазон дат из раскрывающегося списка и нажав кнопку "Ввод!".


*Определитесь, кто Вы:
робот инопланетянин человек

Внимание! Время в таблицах - всемирное. Для получения местного времени необходимо прибавить поправку, которая в Dubai равна 4 ч.

Смотрите также архив погоды в соседних городах и на ближайших метеорологических станциях:

Погода в Sharjah (ОАЭ) (21 км)
Погода в Dubai Al Maktoum Int Airport (ОАЭ) (43 км)
Погода в Ras Al Khaimah Int Airport (ОАЭ) (73 км)
Погода в Abu Musa Island (Иран) (82 км)
Погода в Diba (Оман) (101 км)
Погода в Fujairah (ОАЭ) (102 км)
Погода в Sirri Island (Иран) (107 км)
Погода в Al Ain Int Airport (ОАЭ) (112 км)
Погода в Abu Dhabi (ОАЭ) (114 км)
Погода в Buraimi (Оман) (122 км)

Пояснения к столбцам:

Ветер - указаны скорость ветра в м/с - средняя за 10 мин, порывы в срок и между сроками (в фигурных скобках) и направление, откуда дует ветер: С - северный, СВ - северо-восточный, В - восточный, ЮВ - юго-восточный, Ю - южный, ЮЗ - юго-западный, З - западный, СЗ - северо-западный.
Видимость - горизонтальная дальность видимости в метрах или километрах. При видимости от 1 до 10 км при отсутствии осадков обычно наблюдается дымка, при ухудшении видимости до 1 км и менее - туман. В сухую погоду видимость может ухудшаться дымом, пылью или мглою.
Явления - указаны атмосферные явления, наблюдавшиеся в срок или в последний час перед сроком; фигурными скобками обозначены явления, наблюдавшиеся между сроками (за 1-3 часа до срока); квадратными скобками обозначены град или гололедные отложения с указанием их диаметра в мм.
Облачность - указаны через наклонную черту общая и нижняя облачность в баллах и высота нижней границы облаков в метрах; квадратными скобками обозначены формы облаков: Ci - перистые, Cs - перисто-слоистые, Cc - перисто-кучевые, Ac - высококучевые, As - высокослоистые, Sc - слоисто-кучевые, Ns - слоисто-дождевые, Cu - кучевые, Cb - кучево-дождевые. Подробнее классификацию облаков см. в Атласе облаков (PDF).
T - Температура воздуха - температура, измеренная на высоте 2 м над землей.
Td - Температура точки росы - температура, при понижении до которой содержащийся в воздухе водяной пар достигнет насыщения.
f - Относительная влажность воздуха - влажноcть воздуха, измеренная на высоте 2 м над землей.
Te - Эффективная температура - температура, которую ощущает одетый по сезону человек в тени. Характеристика душности погоды. При расчете учитывается влияние влажности воздуха и скорости ветра на теплоощущения человека.
Tes - Эффективная температура на солнце - температура, которую ощущает человек, с поправкой на солнечный нагрев. Характеристика знойности погоды. Зависит от высоты солнца над горизонтом, облачности и скорости ветра. Ночью, в пасмурную погоду, а также при ветре 12 м/с и более поправка равна нулю.
P - Атмосферное давление - приведенное к уровню моря атмосферное давление.
Po - Атмосферное давление - измеренное на уровне метеостанции атмосферное давление.
Tmin - Минимальная температура - минимум температуры воздуха на высоте 2 м над землей.
Tmax - Максимальная температура - максимум температуры воздуха на высоте 2 м над землей.
R - Количество осадков - Количество выпавших осадков за период времени, мм. При наведении курсора мыши на число - период времени, за который выпало указанное количество осадков.
R24 - Количество осадков - Количество выпавших осадков за 24 часа, мм.
S - Снежный покров - Высота снежного покрова, см. При наведении курсора мыши на число - состояние снежного покрова и степень покрытия местности в баллах.